EW5858 Weather Reports


time (UTC)temp
F
wind
direction
speed
knots
gust
knots
rain 1hr
in
rain 24hr
in
rain mn
in
humidity
%
barometer
mb
20260504000619 68 76 1.7 5.2 0.00 0.01 0.01 42 1005.2
20260504000119 68 95 1.7 4.3 0.00 0.01 0.01 42 1005.2
20260503235617 68 55 1.7 4.3 0.00 0.01 0.01 41 1005.2
20260503235113 68 208 1.7 4.3 0.00 0.01 0.01 41 1005.2
20260503234613 68 183 1.7 7.0 0.00 0.01 0.01 40 1005.2
20260503234113 69 345 1.7 7.0 0.00 0.01 0.01 40 1005.1
20260503233613 69 86 0.9 5.2 0.00 0.01 0.01 40 1005.2
20260503233345 70 94 0.9 3.5 0.00 0.01 0.01 39 1005.2
20260503232613 70 0 0.9 3.5 0.00 0.01 0.01 39 1005.2
20260503232115 70 125 0.9 4.3 0.00 0.01 0.01 39 1005.2
20260503231614 69 33 0.9 4.3 0.00 0.01 0.01 38 1005.3
20260503231113 69 62 0.9 4.3 0.00 0.01 0.01 38 1005.3
20260503230614 69 108 1.7 5.2 0.00 0.01 0.01 40 1005.5
20260503230114 68 90 1.7 5.2 0.00 0.01 0.01 39 1005.5
20260503225611 68 329 1.7 5.2 0.00 0.01 0.01 39 1005.7
20260503225113 68 18 1.7 5.2 0.00 0.01 0.01 39 1005.7
20260503224612 68 88 1.7 5.2 0.00 0.01 0.01 40 1005.8
20260503224111 68 113 1.7 5.2 0.00 0.01 0.01 40 1005.8
20260503223616 67 155 1.7 7.8 0.00 0.01 0.01 40 1005.9
20260503223612 68 306 1.7 5.2 0.00 0.01 0.01 39 1005.8
20260503222612 67 85 1.7 7.8 0.00 0.01 0.01 40 1006.0
20260503222112 67 313 2.6 6.1 0.00 0.01 0.01 40 1006.0
20260503221613 67 87 2.6 5.2 0.00 0.01 0.01 40 1006.1
20260503221111 67 99 2.6 5.2 0.00 0.01 0.01 39 1006.2
20260503220612 67 66 1.7 5.2 0.00 0.01 0.01 39 1006.3
20260503220112 67 286 1.7 5.2 0.00 0.01 0.01 39 1006.2
20260503215613 67 105 2.6 5.2 0.00 0.01 0.01 39 1006.3
20260503215112 67 88 1.7 5.2 0.00 0.01 0.01 38 1006.3
20260503214609 68 121 1.7 5.2 0.00 0.01 0.01 38 1006.4
20260503214110 67 166 1.7 6.1 0.00 0.01 0.01 39 1006.4
20260503213607 67 114 1.7 6.1 0.00 0.01 0.01 38 1006.4
20260503213111 66 146 2.6 7.0 0.00 0.01 0.01 39 1006.5
20260503212606 66 112 2.6 7.0 0.00 0.01 0.01 38 1006.5
20260503212106 66 33 2.6 7.0 0.00 0.01 0.01 38 1006.7
20260503211607 65 117 3.5 7.8 0.00 0.01 0.01 39 1006.6
20260503211338 65 168 3.5 7.8 0.00 0.01 0.01 39 1006.6
20260503210607 65 38 2.6 7.8 0.00 0.01 0.01 38 1006.8
20260503210107 65 107 2.6 7.8 0.00 0.01 0.01 38 1006.9
20260503205608 65 168 2.6 7.8 0.00 0.01 0.01 38 1007.0
20260503205107 65 68 2.6 7.8 0.00 0.01 0.01 39 1006.9
20260503204604 65 24 2.6 7.8 0.00 0.01 0.01 40 1007.1
20260503204333 64 120 2.6 7.0 0.00 0.01 0.01 41 1007.2
20260503203601 64 4 2.6 6.1 0.00 0.01 0.01 41 1007.3
20260503203057 64 124 2.6 7.0 0.00 0.01 0.01 42 1007.5
20260503202557 64 81 2.6 7.8 0.00 0.01 0.01 42 1007.6
20260503202059 64 145 3.5 8.7 0.00 0.01 0.01 42 1007.8
20260503201558 65 33 2.6 8.7 0.00 0.01 0.01 42 1007.8
20260503201058 65 121 2.6 6.1 0.00 0.01 0.01 43 1007.9
20260503200558 64 136 2.6 7.8 0.00 0.01 0.01 44 1007.9
20260503200057 63 1 2.6 7.8 0.00 0.01 0.01 46 1007.9
20260503195558 63 136 2.6 8.7 0.00 0.01 0.01 47 1008.2
20260503195058 63 139 1.7 8.7 0.00 0.01 0.01 49 1007.9
20260503194829 63 241 1.7 7.0 0.00 0.01 0.01 48 1008.2
20260503194056 62 346 1.7 4.3 0.00 0.01 0.01 48 1008.3
20260503193557 62 307 1.7 6.1 0.00 0.01 0.01 47 1008.3
20260503193056 61 336 2.6 7.8 0.00 0.01 0.01 47 1008.5
20260503192554 61 18 2.6 7.8 0.00 0.01 0.01 48 1008.5
20260503192055 61 10 2.6 6.1 0.00 0.01 0.01 48 1008.6
20260503191554 60 89 2.6 7.0 0.00 0.01 0.01 50 1008.7
20260503191325 59 320 2.6 7.8 0.00 0.01 0.01 50 1008.7
20260503190554 59 111 1.7 7.8 0.00 0.01 0.01 50 1009.0
20260503190056 59 242 2.6 6.1 0.00 0.01 0.01 51 1008.8
20260503185554 58 92 2.6 6.1 0.00 0.01 0.01 53 1008.9
20260503185054 58 46 2.6 6.1 0.00 0.01 0.01 54 1009.0
20260503184554 59 279 2.6 6.1 0.00 0.01 0.01 54 1009.1
20260503184055 59 87 1.7 5.2 0.00 0.01 0.01 55 1009.0
20260503183825 59 59 2.6 6.1 0.00 0.01 0.01 53 1009.2
20260503183051 58 356 2.6 6.1 0.00 0.01 0.01 55 1009.3
20260503182822 57 25 1.7 7.0 0.00 0.01 0.01 57 1009.4
20260503182050 56 109 2.6 7.0 0.00 0.01 0.01 57 1009.5
20260503181818 55 63 2.6 7.0 0.00 0.01 0.01 58 1009.7
20260503181650 55 356 2.6 7.8 0.00 0.01 0.01 59 1009.9
20260503180546 55 85 2.6 7.8 0.00 0.01 0.01 59 1010.2
20260503180046 55 94 2.6 7.0 0.00 0.01 0.01 60 1010.4
20260503175546 55 82 2.6 7.8 0.00 0.01 0.01 60 1010.6
20260503175047 55 90 2.6 7.8 0.00 0.01 0.01 60 1010.7
20260503174546 55 123 2.6 7.0 0.00 0.01 0.01 62 1010.8
20260503174047 54 228 2.6 5.2 0.00 0.01 0.01 62 1011.1
20260503173543 54 45 2.6 6.1 0.00 0.01 0.01 63 1011.3
20260503173044 54 7 2.6 7.0 0.00 0.01 0.01 65 1011.3
20260503172815 53 266 2.6 7.0 0.00 0.01 0.01 65 1011.4
20260503172043 53 358 2.6 7.0 0.01 0.01 0.01 66 1011.5
20260503171812 53 17 2.6 7.0 0.01 0.01 0.01 67 1011.7
20260503171312 53 284 2.6 7.0 0.01 0.01 0.01 67 1011.9
20260503170812 53 148 1.7 6.1 0.01 0.01 0.01 69 1011.9
20260503150532 55 97 1.7 5.2 0.00 0.00 0.00 55 1012.5
20260503131250 51 70 2.6 6.1 0.00 0.00 0.00 54 1013.3
20260503130518 51 122 2.6 7.0 0.00 0.00 0.00 55 1013.4
20260503130248 51 140 2.6 7.0 0.00 0.00 0.00 54 1013.4
20260503110511 48 110 2.6 6.1 0.00 0.00 0.00 55 1013.1
20260503090450 47 96 1.7 5.2 0.00 0.00 0.00 53 1013.6
20260503090222 47 66 1.7 4.3 0.00 0.00 0.00 53 1013.6
20260503081446 46 67 1.7 3.5 0.00 0.00 0.00 56 1013.8
20260503081218 46 3 1.7 2.6 0.00 0.00 0.00 56 1013.8
20260503080716 46 109 1.7 2.6 0.00 0.00 0.00 55 1013.9
20260503072941 46 310 1.7 2.6 0.00 0.00 0.00 54 1013.9
20260503072441 46 102 1.7 3.5 0.00 0.00 0.00 55 1014.0
20260503071940 46 160 1.7 3.5 0.00 0.00 0.00 54 1014.0
20260503071438 46 24 1.7 3.5 0.00 0.00 0.00 55 1014.0
20260503070938 46 75 1.7 2.6 0.00 0.00 0.00 55 1014.1
20260503070707 46 89 1.7 2.6 0.00 0.00 0.00 56 1014.1
20260503054929 44 99 0.9 2.6 0.00 0.00 0.00 64 1014.7
20260503054656 44 72 0.9 2.6 0.00 0.00 0.00 64 1014.8
20260503053924 44 74 0.9 2.6 0.00 0.00 0.00 64 1014.8
20260503053424 44 72 0.9 3.5 0.00 0.00 0.00 64 1014.8
20260503052922 44 36 0.9 3.5 0.00 0.00 0.00 64 1014.8
20260503052421 44 0 0.9 1.7 0.00 0.00 0.00 65 1014.9
20260503051918 44 78 0.9 1.7 0.00 0.00 0.00 66 1015.0
20260503051416 43 72 0.9 1.7 0.00 0.00 0.00 67 1015.0
20260503050916 43 106 0.9 1.7 0.00 0.00 0.00 68 1015.0
20260503050416 43 84 0.9 2.6 0.00 0.00 0.00 69 1015.1
20260503045917 43 76 0.9 2.6 0.00 0.00 0.00 70 1015.1
20260503045415 42 47 0.9 1.7 0.00 0.00 0.00 72 1015.1
20260503045146 42 90 0.9 1.7 0.00 0.00 0.00 74 1015.1
20260503044416 42 90 0.9 1.7 0.00 0.00 0.00 75 1015.1
20260503043916 42 78 0.9 1.7 0.00 0.00 0.00 76 1015.1
20260503043415 42 0 0.9 1.7 0.00 0.00 0.00 77 1015.2
20260503042916 42 85 0.9 1.7 0.00 0.00 0.00 78 1015.1
20260503042415 42 102 0.9 1.7 0.00 0.00 0.00 78 1015.1
20260503041913 42 19 0.9 1.7 0.00 0.00 0.00 79 1015.1
20260503041414 42 78 0.9 1.7 0.00 0.00 0.00 80 1015.2
20260503040914 42 0 0.9 1.7 0.00 0.00 0.00 80 1015.2
20260503040641 42 91 0.9 1.7 0.00 0.00 0.00 81 1015.3
20260503035910 42 93 0.9 1.7 0.00 0.00 0.00 82 1015.3
20260503035408 42 0 0.0 1.7 0.00 0.00 0.00 82 1015.3
20260503034907 42 79 0.0 1.7 0.00 0.00 0.00 82 1015.3
20260503034408 42 77 0.0 1.7 0.00 0.00 0.00 82 1015.3
20260503033909 42 0 0.0 1.7 0.00 0.00 0.00 82 1015.3
20260503033407 42 0 0.0 1.7 0.00 0.00 0.00 82 1015.4
20260503032908 42 0 0.0 1.7 0.00 0.00 0.00 82 1015.4
20260503032409 42 0 0.0 1.7 0.00 0.00 0.00 83 1015.4
20260503031908 42 93 0.0 1.7 0.00 0.00 0.00 83 1015.4
20260503031408 42 0 0.9 1.7 0.00 0.00 0.00 83 1015.5
20260503030905 42 70 0.9 1.7 0.00 0.00 0.00 83 1015.5
20260503030636 42 81 0.9 1.7 0.00 0.00 0.00 83 1015.5
20260503025902 43 0 0.9 1.7 0.00 0.00 0.00 83 1015.6
20260503025359 43 89 0.9 1.7 0.00 0.00 0.00 83 1015.6
20260503024859 43 0 0.9 1.7 0.00 0.00 0.00 83 1015.6
20260503024356 43 87 0.9 1.7 0.00 0.00 0.00 83 1015.6
20260503023857 43 101 0.9 1.7 0.00 0.00 0.00 83 1015.6
20260503023357 43 91 0.9 1.7 0.00 0.00 0.00 83 1015.6
20260503022858 44 99 0.9 1.7 0.00 0.00 0.00 83 1015.6
20260503022356 44 0 0.9 1.7 0.00 0.00 0.00 82 1015.6
20260503021857 44 107 0.0 1.7 0.00 0.00 0.00 82 1015.6
20260503021402 44 160 0.0 1.7 0.00 0.00 0.00 82 1015.6
20260503021129 44 26 0.9 1.7 0.00 0.00 0.00 81 1015.6
20260503020355 44 160 0.9 1.7 0.00 0.00 0.00 81 1015.6
20260503015854 45 87 0.9 1.7 0.00 0.00 0.00 81 1015.5
20260503015354 45 0 0.9 1.7 0.00 0.00 0.00 80 1015.5
20260503014852 45 86 0.9 1.7 0.00 0.00 0.00 80 1015.5
20260503014357 46 100 0.9 1.7 0.00 0.00 0.00 79 1015.4
20260503014352 45 158 0.9 1.7 0.00 0.00 0.00 79 1015.4
20260503013352 46 71 0.9 1.7 0.00 0.00 0.00 79 1015.4
20260503012853 46 100 0.9 1.7 0.00 0.00 0.00 78 1015.4
20260503012353 46 82 0.9 1.7 0.00 0.00 0.00 77 1015.5
20260503011853 47 98 0.9 1.7 0.00 0.00 0.00 77 1015.4
20260503011625 47 100 0.9 1.7 0.00 0.00 0.00 76 1015.5
20260503010849 47 92 0.0 1.7 0.00 0.00 0.00 75 1015.4
20260503010349 48 56 0.0 0.9 0.00 0.00 0.00 74 1015.5
20260503005849 48 0 0.0 1.7 0.00 0.00 0.00 74 1015.4
20260503005349 48 0 0.0 1.7 0.00 0.00 0.00 73 1015.5
20260503004847 49 0 0.0 0.9 0.00 0.00 0.00 72 1015.5
20260503004347 49 88 0.0 1.7 0.00 0.00 0.00 72 1015.5
20260503003843 49 85 0.0 1.7 0.00 0.00 0.00 71 1015.5
20260503003344 49 1 0.9 1.7 0.00 0.00 0.00 70 1015.5
20260503002844 50 321 0.9 2.6 0.00 0.00 0.00 69 1015.6
20260503002614 50 41 0.9 2.6 0.00 0.00 0.00 68 1015.6
20260503002114 50 107 0.9 2.6 0.00 0.00 0.00 67 1015.6
20260503001345 50 69 0.9 2.6 0.00 0.00 0.00 66 1015.6